This is the latest recevied weather packets stored in our database for station/object KC1IUC-15. If no packets are shown the sender has not sent any weather packets the latest 10 day(s).
| Time | Temp. | Humidity | Pressure | Rain* | Wind** | Luminosity | Snow |
|---|---|---|---|---|---|---|---|
| 1777135203 | 11.11° C | 48% | 1017.8 hPa | 0 mm | - | 326 W/m² | - |
| 1777134903 | 11.11° C | 50% | 1018.1 hPa | 0 mm | - | 285 W/m² | - |
| 1777134603 | 11.11° C | 49% | 1017.8 hPa | 0 mm | - | 291 W/m² | - |
| 1777134303 | 11.11° C | 50% | 1017.8 hPa | 0 mm | - | 279 W/m² | - |
| 1777134003 | 10.56° C | 51% | 1017.8 hPa | 0 mm | - | 303 W/m² | - |
| 1777133703 | 10.56° C | 51% | 1018.1 hPa | 0 mm | - | 308 W/m² | - |
| 1777133403 | 11.11° C | 50% | 1018.1 hPa | 0 mm | - | 318 W/m² | - |
| 1777133103 | 11.11° C | 51% | 1018.1 hPa | 0 mm | - | 323 W/m² | - |
| 1777132803 | 10.56° C | 53% | 1018.1 hPa | 0 mm | - | 304 W/m² | - |
| 1777132503 | 10.56° C | 51% | 1018.1 hPa | 0 mm | - | 319 W/m² | - |
| 1777132203 | 10.56° C | 53% | 1018.1 hPa | 0 mm | - | 272 W/m² | - |
| 1777131903 | 10.56° C | 51% | 1018.1 hPa | 0 mm | - | 291 W/m² | - |
| 1777131603 | 10.56° C | 53% | 1018.5 hPa | 0 mm | - | 335 W/m² | - |
| 1777131303 | 10.56° C | 53% | 1018.1 hPa | 0 mm | - | 326 W/m² | - |
| 1777131003 | 10° C | 54% | 1018.1 hPa | 0 mm | - | 304 W/m² | - |
| 1777130703 | 10° C | 55% | 1018.5 hPa | 0 mm | - | 257 W/m² | - |
| 1777130403 | 10° C | 54% | 1018.1 hPa | 0 mm | - | 261 W/m² | - |
| 1777130103 | 10° C | 55% | 1018.1 hPa | 0 mm | - | 240 W/m² | - |
| 1777129803 | 10° C | 56% | 1018.1 hPa | 0 mm | - | 244 W/m² | - |
| 1777129503 | 10° C | 54% | 1018.1 hPa | 0 mm | - | 258 W/m² | - |
| 1777129203 | 10° C | 53% | 1018.5 hPa | 0 mm | - | 241 W/m² | - |
| 1777128903 | 10° C | 56% | 1018.1 hPa | 0 mm | - | 234 W/m² | - |
| 1777128603 | 10° C | 54% | 1018.5 hPa | 0 mm | - | 229 W/m² | - |
| 1777128303 | 10° C | 55% | 1018.5 hPa | 0 mm | - | 243 W/m² | - |
| 1777128003 | 10° C | 54% | 1018.5 hPa | 0 mm | - | 225 W/m² | - |
* Rain latest hour (hover to see other rain measurements)
** Current wind speed in m/s (hover to see current wind gust speed)